Location: Passau
(48.5830°N, 13.4830°E)
Time: 06:00:52
(UTC+02:00)

Vanguard 1 - Pass Details

Date: 02 August 2021
Orbit: 652 x 3831 km, 34.3° (Epoch: 16 September)

Event Time Altitude Azimuth Distance (km) Brightness Sun altitude
Rises 17:51:56 0° 256° (WSW) 4,648 14.8 26.3°
Reaches altitude 10° 17:57:38 10° 228° (SW) 4,342 14.2 25.4°
Maximum altitude 18:01:40 12° 208° (SSW) 4,611 14.0 24.7°
Drops below altitude 10° 18:06:25 10° 189° (S) 5,290 14.0 23.9°
Sets 18:15:56 0° 166° (SSE) 7,128 14.3 22.3°
